Time,TemperatureF,DewpointF,PressureIn,WindDirection,WindDirectionDegrees,WindSpeedMPH,WindSpeedGustMPH,Humidity,HourlyPrecipIn,Conditions,Clouds,dailyrainin,SoftwareType,DateUTC
2013-02-13 00:00:00,69.7,67.9,29.96,SSW,213,2.0,10.0,94,0.00,,SKC,0.00,VWS V14.01,2013-02-13 05:00:00,
2013-02-13 00:05:00,69.7,67.9,29.96,SSW,199,7.0,8.0,94,0.00,,SKC,0.00,VWS V14.01,2013-02-13 05:05:00,
2013-02-13 00:10:00,69.7,67.9,29.95,SSW,197,5.0,11.0,94,0.00,,SKC,0.00,VWS V14.01,2013-02-13 05:10:00,
2013-02-13 00:15:00,69.7,67.9,29.95,SSW,211,5.0,10.0,94,0.00,,SKC,0.00,VWS V14.01,2013-02-13 05:15:00,
2013-02-13 00:20:00,69.7,67.9,29.95,SW,219,4.0,11.0,94,0.00,,SKC,0.00,VWS V14.01,2013-02-13 05:20:00,
2013-02-13 00:25:00,69.7,67.9,29.95,SW,229,5.0,15.0,94,0.00,,SKC,0.00,VWS V14.01,2013-02-13 05:25:00,
2013-02-13 00:30:00,69.7,67.9,29.95,SW,226,4.0,10.0,94,0.00,,SKC,0.00,VWS V14.01,2013-02-13 05:30:00,
2013-02-13 00:35:00,69.6,67.8,29.95,SSW,203,6.0,6.0,94,0.00,,SKC,0.00,VWS V14.01,2013-02-13 05:35:00,
2013-02-13 00:40:00,69.6,67.8,29.95,SW,223,7.0,11.0,94,0.00,,SKC,0.00,VWS V14.01,2013-02-13 05:40:00,
2013-02-13 00:45:00,69.6,67.8,29.95,SSW,196,8.0,10.0,94,0.00,,SKC,0.00,VWS V14.01,2013-02-13 05:45:00,
2013-02-13 00:50:00,69.7,67.9,29.95,SW,225,6.0,6.0,94,0.00,,SKC,0.00,VWS V14.01,2013-02-13 05:50:00,
2013-02-13 00:55:00,69.7,67.9,29.95,SW,220,5.0,13.0,94,0.00,,SKC,0.00,VWS V14.01,2013-02-13 05:55:00,
2013-02-13 01:00:00,69.7,67.9,29.96,SW,226,7.0,12.0,94,0.00,,SKC,0.00,VWS V14.01,2013-02-13 06:00:00,
2013-02-13 01:05:00,69.7,67.9,29.95,WSW,237,6.0,12.0,94,0.00,,SKC,0.00,VWS V14.01,2013-02-13 06:05:00,
2013-02-13 01:10:00,69.7,67.9,29.95,WSW,237,9.0,10.0,94,0.00,,SKC,0.00,VWS V14.01,2013-02-13 06:10:00,
2013-02-13 01:15:00,69.7,67.9,29.95,SSW,209,6.0,12.0,94,0.00,,SKC,0.00,VWS V14.01,2013-02-13 06:15:00,
2013-02-13 01:20:00,69.7,67.9,29.95,SSW,211,6.0,11.0,94,0.00,,SKC,0.00,VWS V14.01,2013-02-13 06:20:00,
2013-02-13 01:25:00,69.7,67.9,29.95,SSW,201,8.0,13.0,94,0.00,,SKC,0.00,VWS V14.01,2013-02-13 06:25:00,
2013-02-13 01:30:00,69.7,67.9,29.95,SSW,198,6.0,12.0,94,0.00,,SKC,0.00,VWS V14.01,2013-02-13 06:30:00,
2013-02-13 01:35:00,69.6,67.8,29.95,South,191,10.0,12.0,94,0.00,,SKC,0.00,VWS V14.01,2013-02-13 06:35:00,
2013-02-13 01:40:00,69.6,67.8,29.94,SSW,203,5.0,12.0,94,0.00,,SKC,0.00,VWS V14.01,2013-02-13 06:40:00,
2013-02-13 01:45:00,69.6,67.8,29.94,SSW,208,6.0,12.0,94,0.00,,SKC,0.00,VWS V14.01,2013-02-13 06:45:00,
2013-02-13 01:50:00,69.6,67.8,29.94,SW,218,9.0,11.0,94,0.00,,SKC,0.00,VWS V14.01,2013-02-13 06:50:00,
2013-02-13 01:55:00,69.5,67.7,29.94,SSW,213,8.0,12.0,94,0.00,,SKC,0.00,VWS V14.01,2013-02-13 06:55:00,
2013-02-13 02:00:00,69.5,67.7,29.94,SSW,213,7.0,12.0,94,0.00,,SKC,0.00,VWS V14.01,2013-02-13 07:00:00,
2013-02-13 02:05:00,69.5,67.7,29.94,SSW,196,8.0,8.0,94,0.00,,SKC,0.00,VWS V14.01,2013-02-13 07:05:00,
2013-02-13 02:10:00,69.4,67.6,29.94,SSW,209,6.0,6.0,94,0.00,,SKC,0.00,VWS V14.01,2013-02-13 07:10:00,
2013-02-13 02:15:00,69.4,67.6,29.94,SSW,200,6.0,9.0,94,0.00,,SKC,0.00,VWS V14.01,2013-02-13 07:15:00,
2013-02-13 02:20:00,69.4,67.6,29.94,SSW,207,6.0,12.0,94,0.00,,SKC,0.00,VWS V14.01,2013-02-13 07:20:00,
2013-02-13 02:25:00,69.4,67.6,29.94,SSW,204,7.0,12.0,94,0.00,,SKC,0.00,VWS V14.01,2013-02-13 07:25:00,
2013-02-13 02:30:00,69.4,67.6,29.93,SSW,208,8.0,10.0,94,0.00,,SKC,0.00,VWS V14.01,2013-02-13 07:30:00,
2013-02-13 02:35:00,69.3,67.5,29.93,SSW,211,8.0,14.0,94,0.00,,SKC,0.00,VWS V14.01,2013-02-13 07:35:00,
2013-02-13 02:40:00,69.2,67.4,29.93,SSW,207,7.0,7.0,94,0.00,,SKC,0.00,VWS V14.01,2013-02-13 07:40:00,
2013-02-13 02:45:00,69.2,67.4,29.93,SSW,198,7.0,11.0,94,0.00,,SKC,0.00,VWS V14.01,2013-02-13 07:45:00,
2013-02-13 02:50:00,69.2,67.4,29.93,SSW,203,6.0,10.0,94,0.00,,SKC,0.00,VWS V14.01,2013-02-13 07:50:00,
2013-02-13 02:55:00,69.1,67.3,29.92,SSW,194,7.0,13.0,94,0.00,,SKC,0.00,VWS V14.01,2013-02-13 07:55:00,
2013-02-13 03:00:00,69.0,67.2,29.92,SSW,202,8.0,12.0,94,0.00,,SKC,0.00,VWS V14.01,2013-02-13 08:00:00,
2013-02-13 03:05:00,69.0,67.2,29.92,SSW,205,7.0,12.0,94,0.00,,SKC,0.00,VWS V14.01,2013-02-13 08:05:00,
2013-02-13 03:10:00,69.0,67.2,29.92,SW,214,8.0,12.0,94,0.00,,SKC,0.00,VWS V14.01,2013-02-13 08:10:00,
2013-02-13 03:15:00,69.0,67.5,29.92,South,175,6.0,12.0,95,0.00,,SKC,0.00,VWS V14.01,2013-02-13 08:15:00,
2013-02-13 03:20:00,69.0,67.5,29.92,SSW,200,7.0,10.0,95,0.00,,SKC,0.00,VWS V14.01,2013-02-13 08:20:00,
2013-02-13 03:25:00,68.9,67.4,29.92,SSW,202,6.0,10.0,95,0.00,,SKC,0.00,VWS V14.01,2013-02-13 08:25:00,
2013-02-13 03:30:00,68.8,67.3,29.92,SSW,202,7.0,10.0,95,0.00,,SKC,0.00,VWS V14.01,2013-02-13 08:30:00,
2013-02-13 03:35:00,68.8,67.3,29.92,South,191,9.0,11.0,95,0.00,,SKC,0.00,VWS V14.01,2013-02-13 08:35:00,
2013-02-13 03:40:00,68.7,67.2,29.92,SSW,203,7.0,12.0,95,0.00,,SKC,0.00,VWS V14.01,2013-02-13 08:40:00,
2013-02-13 03:45:00,68.7,67.2,29.92,SSW,209,8.0,13.0,95,0.00,,SKC,0.00,VWS V14.01,2013-02-13 08:45:00,
2013-02-13 03:50:00,68.7,67.2,29.92,South,182,9.0,14.0,95,0.00,,SKC,0.00,VWS V14.01,2013-02-13 08:50:00,
2013-02-13 03:55:00,68.7,67.2,29.91,South,187,12.0,14.0,95,0.00,,SKC,0.00,VWS V14.01,2013-02-13 08:55:00,
2013-02-13 04:00:00,68.7,67.2,29.91,South,184,11.0,14.0,95,0.00,,SKC,0.00,VWS V14.01,2013-02-13 09:00:00,
2013-02-13 04:05:00,68.7,67.2,29.91,SSW,203,8.0,13.0,95,0.00,,SKC,0.00,VWS V14.01,2013-02-13 09:05:00,
2013-02-13 04:10:00,68.7,67.2,29.91,SSW,210,8.0,18.0,95,0.00,,SKC,0.00,VWS V14.01,2013-02-13 09:10:00,
2013-02-13 04:15:00,68.8,67.3,29.91,SSW,192,8.0,13.0,95,0.00,,SKC,0.00,VWS V14.01,2013-02-13 09:15:00,
2013-02-13 04:20:00,68.8,67.3,29.91,South,190,8.0,13.0,95,0.00,,SKC,0.00,VWS V14.01,2013-02-13 09:20:00,
2013-02-13 04:25:00,68.8,67.3,29.91,SSW,199,7.0,11.0,95,0.00,,SKC,0.00,VWS V14.01,2013-02-13 09:25:00,
2013-02-13 04:30:00,68.8,67.3,29.91,SSW,192,7.0,11.0,95,0.00,,SKC,0.00,VWS V14.01,2013-02-13 09:30:00,
2013-02-13 04:35:00,68.7,67.2,29.91,SSW,205,10.0,13.0,95,0.00,,SKC,0.00,VWS V14.01,2013-02-13 09:35:00,
2013-02-13 04:40:00,68.7,67.2,29.91,SSW,202,11.0,13.0,95,0.00,,SKC,0.00,VWS V14.01,2013-02-13 09:40:00,
2013-02-13 04:45:00,68.7,67.2,29.91,SSW,205,11.0,14.0,95,0.00,,SKC,0.00,VWS V14.01,2013-02-13 09:45:00,
2013-02-13 04:50:00,68.7,67.2,29.91,SSW,203,6.0,14.0,95,0.00,,SKC,0.00,VWS V14.01,2013-02-13 09:50:00,
2013-02-13 04:55:00,68.7,67.2,29.91,SSW,201,11.0,13.0,95,0.00,,SKC,0.00,VWS V14.01,2013-02-13 09:55:00,
2013-02-13 05:00:00,68.7,67.2,29.91,South,184,9.0,13.0,95,0.00,,SKC,0.00,VWS V14.01,2013-02-13 10:00:00,
2013-02-13 05:05:00,68.7,67.2,29.91,South,179,3.0,17.0,95,0.00,,SKC,0.00,VWS V14.01,2013-02-13 10:05:00,
2013-02-13 05:10:00,68.7,67.2,29.91,South,176,12.0,12.0,95,0.00,,SKC,0.00,VWS V14.01,2013-02-13 10:10:00,
2013-02-13 05:15:00,68.8,67.3,29.91,South,190,6.0,14.0,95,0.00,,SKC,0.00,VWS V14.01,2013-02-13 10:15:00,
2013-02-13 05:20:00,68.8,67.3,29.91,South,172,12.0,16.0,95,0.00,,SKC,0.00,VWS V14.01,2013-02-13 10:20:00,
2013-02-13 05:25:00,68.8,67.3,29.91,South,180,8.0,15.0,95,0.00,,SKC,0.00,VWS V14.01,2013-02-13 10:25:00,
2013-02-13 05:30:00,68.8,67.3,29.91,SSW,197,8.0,14.0,95,0.00,,SKC,0.00,VWS V14.01,2013-02-13 10:30:00,
2013-02-13 05:35:00,68.8,67.3,29.91,SSW,198,8.0,13.0,95,0.00,,SKC,0.00,VWS V14.01,2013-02-13 10:35:00,
2013-02-13 05:40:00,68.8,67.3,29.91,SSW,204,10.0,14.0,95,0.00,,SKC,0.00,VWS V14.01,2013-02-13 10:40:00,
2013-02-13 05:45:00,68.8,67.3,29.92,SW,222,7.0,13.0,95,0.00,,SKC,0.00,VWS V14.01,2013-02-13 10:45:00,
2013-02-13 05:50:00,68.9,67.4,29.92,SSW,192,7.0,12.0,95,0.00,,SKC,0.00,VWS V14.01,2013-02-13 10:50:00,
2013-02-13 05:55:00,68.9,67.4,29.92,SSW,195,8.0,12.0,95,0.00,,SKC,0.00,VWS V14.01,2013-02-13 10:55:00,
2013-02-13 06:00:00,68.9,67.4,29.92,South,172,7.0,14.0,95,0.00,,SKC,0.00,VWS V14.01,2013-02-13 11:00:00,
2013-02-13 06:05:00,68.9,67.1,29.92,SSW,213,9.0,12.0,94,0.00,,SKC,0.00,VWS V14.01,2013-02-13 11:05:00,
2013-02-13 06:10:00,68.9,67.1,29.92,SSW,201,8.0,8.0,94,0.00,,SKC,0.00,VWS V14.01,2013-02-13 11:10:00,
2013-02-13 06:15:00,68.9,67.1,29.92,SSW,193,7.0,12.0,94,0.00,,SKC,0.00,VWS V14.01,2013-02-13 11:15:00,
2013-02-13 06:20:00,68.8,67.0,29.92,SSW,203,12.0,16.0,94,0.00,,SKC,0.00,VWS V14.01,2013-02-13 11:20:00,
2013-02-13 06:25:00,68.8,67.0,29.92,SW,219,15.0,15.0,94,0.00,,SKC,0.00,VWS V14.01,2013-02-13 11:25:00,
2013-02-13 06:30:00,68.8,67.0,29.92,South,182,9.0,13.0,94,0.00,,SKC,0.00,VWS V14.01,2013-02-13 11:30:00,
2013-02-13 06:35:00,68.7,66.9,29.92,South,170,9.0,13.0,94,0.00,,SKC,0.00,VWS V14.01,2013-02-13 11:35:00,
2013-02-13 06:40:00,68.6,66.5,29.92,South,178,10.0,19.0,93,0.00,,SKC,0.00,VWS V14.01,2013-02-13 11:40:00,
2013-02-13 06:45:00,68.6,66.8,29.92,SSW,192,7.0,13.0,94,0.00,,SKC,0.00,VWS V14.01,2013-02-13 11:45:00,
2013-02-13 06:50:00,68.5,66.4,29.93,South,186,7.0,12.0,93,0.00,,SKC,0.00,VWS V14.01,2013-02-13 11:50:00,
2013-02-13 06:55:00,68.5,66.4,29.93,SSW,194,10.0,13.0,93,0.00,,SKC,0.00,VWS V14.01,2013-02-13 11:55:00,
2013-02-13 07:00:00,68.5,66.4,29.93,SSW,194,9.0,16.0,93,0.00,,SKC,0.00,VWS V14.01,2013-02-13 12:00:00,
2013-02-13 07:05:00,68.5,66.4,29.93,SSW,207,15.0,15.0,93,0.00,,SKC,0.00,VWS V14.01,2013-02-13 12:05:00,
2013-02-13 07:10:00,68.5,66.4,29.93,SSW,197,11.0,15.0,93,0.00,,SKC,0.00,VWS V14.01,2013-02-13 12:10:00,
2013-02-13 07:15:00,68.6,66.5,29.93,SSW,196,8.0,14.0,93,0.00,,SKC,0.00,VWS V14.01,2013-02-13 12:15:00,
2013-02-13 07:20:00,68.6,66.5,29.93,SSW,194,8.0,15.0,93,0.00,,SKC,0.00,VWS V14.01,2013-02-13 12:20:00,
2013-02-13 07:25:00,68.7,66.6,29.93,South,180,7.0,14.0,93,0.00,,SKC,0.00,VWS V14.01,2013-02-13 12:25:00,
2013-02-13 07:30:00,68.7,66.6,29.93,South,187,7.0,16.0,93,0.00,,SKC,0.00,VWS V14.01,2013-02-13 12:30:00,
2013-02-13 07:35:00,68.7,66.6,29.93,South,191,12.0,16.0,93,0.00,,SKC,0.00,VWS V14.01,2013-02-13 12:35:00,
2013-02-13 07:40:00,68.8,66.7,29.94,SSW,202,12.0,12.0,93,0.00,,SKC,0.00,VWS V14.01,2013-02-13 12:40:00,
2013-02-13 07:45:00,68.9,66.5,29.93,SSW,197,11.0,17.0,92,0.00,,SKC,0.00,VWS V14.01,2013-02-13 12:45:00,
2013-02-13 07:50:00,68.9,66.5,29.94,South,169,4.0,13.0,92,0.00,,SKC,0.00,VWS V14.01,2013-02-13 12:50:00,
2013-02-13 07:55:00,69.0,66.6,29.94,SW,230,13.0,14.0,92,0.00,,SKC,0.00,VWS V14.01,2013-02-13 12:55:00,
2013-02-13 08:00:00,69.1,66.7,29.94,SW,219,7.0,14.0,92,0.00,,SKC,0.00,VWS V14.01,2013-02-13 13:00:00,
2013-02-13 08:05:00,69.2,66.8,29.94,South,188,11.0,14.0,92,0.00,,SKC,0.00,VWS V14.01,2013-02-13 13:05:00,
2013-02-13 08:10:00,69.3,66.9,29.94,SSW,211,10.0,13.0,92,0.00,,SKC,0.00,VWS V14.01,2013-02-13 13:10:00,
2013-02-13 08:15:00,69.4,67.0,29.94,SW,217,6.0,17.0,92,0.00,,SKC,0.00,VWS V14.01,2013-02-13 13:15:00,
2013-02-13 08:20:00,69.6,67.2,29.94,SSW,205,8.0,16.0,92,0.00,,SKC,0.00,VWS V14.01,2013-02-13 13:20:00,
2013-02-13 08:25:00,69.7,67.6,29.94,South,186,11.0,15.0,93,0.00,,SKC,0.00,VWS V14.01,2013-02-13 13:25:00,
2013-02-13 08:30:00,69.9,67.8,29.94,SW,215,7.0,14.0,93,0.00,,SKC,0.00,VWS V14.01,2013-02-13 13:30:00,
2013-02-13 08:35:00,70.0,67.9,29.94,South,181,10.0,15.0,93,0.00,,SKC,0.00,VWS V14.01,2013-02-13 13:35:00,
2013-02-13 08:40:00,70.1,68.0,29.94,SSW,193,13.0,18.0,93,0.00,,SKC,0.00,VWS V14.01,2013-02-13 13:40:00,
2013-02-13 08:45:00,70.1,68.3,29.94,SSW,209,13.0,16.0,94,0.00,,SKC,0.00,VWS V14.01,2013-02-13 13:45:00,
2013-02-13 08:50:00,70.1,68.3,29.94,SSW,204,9.0,15.0,94,0.00,,SKC,0.00,VWS V14.01,2013-02-13 13:50:00,
2013-02-13 08:55:00,70.3,68.5,29.94,SSW,209,7.0,16.0,94,0.00,,SKC,0.00,VWS V14.01,2013-02-13 13:55:00,
2013-02-13 09:00:00,70.4,68.3,29.94,SSW,207,10.0,15.0,93,0.00,,SKC,0.00,VWS V14.01,2013-02-13 14:00:00,
2013-02-13 09:05:00,70.5,68.4,29.95,SSW,202,8.0,17.0,93,0.00,,SKC,0.00,VWS V14.01,2013-02-13 14:05:00,
2013-02-13 09:10:00,70.7,68.6,29.95,SW,225,9.0,15.0,93,0.00,,SKC,0.00,VWS V14.01,2013-02-13 14:10:00,
2013-02-13 09:15:00,70.8,68.7,29.95,South,189,7.0,13.0,93,0.00,,SKC,0.00,VWS V14.01,2013-02-13 14:15:00,
2013-02-13 09:20:00,71.0,68.9,29.95,SSW,202,7.0,14.0,93,0.00,,SKC,0.00,VWS V14.01,2013-02-13 14:20:00,
2013-02-13 09:25:00,71.2,68.8,29.95,SSW,200,13.0,14.0,92,0.00,,SKC,0.00,VWS V14.01,2013-02-13 14:25:00,
2013-02-13 09:30:00,71.4,69.0,29.95,SSW,197,7.0,14.0,92,0.00,,SKC,0.00,VWS V14.01,2013-02-13 14:30:00,
2013-02-13 09:35:00,71.6,69.2,29.94,South,190,5.0,13.0,92,0.00,,SKC,0.00,VWS V14.01,2013-02-13 14:35:00,
2013-02-13 09:40:00,72.1,69.7,29.94,SSW,209,8.0,14.0,92,0.00,,SKC,0.00,VWS V14.01,2013-02-13 14:40:00,
2013-02-13 09:45:00,72.7,69.6,29.94,SSW,211,12.0,16.0,90,0.00,,SKC,0.00,VWS V14.01,2013-02-13 14:45:00,
2013-02-13 09:50:00,73.0,69.9,29.95,South,178,6.0,16.0,90,0.00,,SKC,0.00,VWS V14.01,2013-02-13 14:50:00,
2013-02-13 09:55:00,73.2,69.4,29.95,SSW,197,13.0,18.0,88,0.00,,SKC,0.00,VWS V14.01,2013-02-13 14:55:00,
2013-02-13 10:00:00,73.3,69.9,29.95,SSW,209,8.0,16.0,89,0.00,,SKC,0.00,VWS V14.01,2013-02-13 15:00:00,
2013-02-13 10:05:00,73.5,69.7,29.95,SSW,210,17.0,19.0,88,0.00,,SKC,0.00,VWS V14.01,2013-02-13 15:05:00,
2013-02-13 10:10:00,73.8,69.7,29.95,SSW,203,7.0,15.0,87,0.00,,SKC,0.00,VWS V14.01,2013-02-13 15:10:00,
2013-02-13 10:15:00,74.2,69.8,29.95,SSW,200,14.0,20.0,86,0.00,,SKC,0.00,VWS V14.01,2013-02-13 15:15:00,
2013-02-13 10:20:00,74.4,69.6,29.95,SSW,209,17.0,22.0,85,0.00,,SKC,0.00,VWS V14.01,2013-02-13 15:20:00,
2013-02-13 10:25:00,74.8,70.0,29.95,SSW,196,13.0,20.0,85,0.00,,SKC,0.00,VWS V14.01,2013-02-13 15:25:00,
2013-02-13 10:30:00,75.0,69.8,29.95,SSW,213,15.0,20.0,84,0.00,,SKC,0.00,VWS V14.01,2013-02-13 15:30:00,
2013-02-13 10:35:00,75.1,69.6,29.95,SW,223,18.0,19.0,83,0.00,,SKC,0.00,VWS V14.01,2013-02-13 15:35:00,
2013-02-13 10:40:00,75.1,69.2,29.95,SW,214,18.0,20.0,82,0.00,,SKC,0.00,VWS V14.01,2013-02-13 15:40:00,
2013-02-13 10:45:00,75.5,69.6,29.95,SSW,206,14.0,24.0,82,0.00,,SKC,0.00,VWS V14.01,2013-02-13 15:45:00,
2013-02-13 10:50:00,75.8,69.6,29.95,SW,224,11.0,20.0,81,0.00,,SKC,0.00,VWS V14.01,2013-02-13 15:50:00,
2013-02-13 10:55:00,76.3,70.1,29.94,SSW,205,10.0,18.0,81,0.00,,SKC,0.00,VWS V14.01,2013-02-13 15:55:00,
2013-02-13 11:00:00,76.5,69.5,29.94,SW,234,13.0,18.0,79,0.00,,SKC,0.00,VWS V14.01,2013-02-13 16:00:00,
2013-02-13 11:05:00,76.8,69.4,29.94,SW,228,21.0,23.0,78,0.00,,SKC,0.00,VWS V14.01,2013-02-13 16:05:00,
2013-02-13 11:10:00,77.2,68.7,29.93,SSW,200,14.0,23.0,75,0.00,,SKC,0.00,VWS V14.01,2013-02-13 16:10:00,
2013-02-13 11:15:00,77.8,68.5,29.93,SSW,213,19.0,22.0,73,0.00,,SKC,0.00,VWS V14.01,2013-02-13 16:15:00,
2013-02-13 11:20:00,78.3,68.5,29.93,SSW,208,19.0,27.0,72,0.00,,SKC,0.00,VWS V14.01,2013-02-13 16:20:00,
2013-02-13 11:25:00,78.5,68.7,29.92,SW,227,13.0,26.0,72,0.00,,SKC,0.00,VWS V14.01,2013-02-13 16:25:00,
2013-02-13 11:30:00,78.6,68.4,29.92,WSW,238,12.0,27.0,71,0.00,,SKC,0.00,VWS V14.01,2013-02-13 16:30:00,
2013-02-13 11:35:00,79.0,68.4,29.92,SSW,194,20.0,21.0,70,0.00,,SKC,0.00,VWS V14.01,2013-02-13 16:35:00,
2013-02-13 11:40:00,79.2,68.2,29.91,SW,223,7.0,25.0,69,0.00,,SKC,0.00,VWS V14.01,2013-02-13 16:40:00,
2013-02-13 11:45:00,79.6,68.1,29.92,SW,223,15.0,27.0,68,0.00,,SKC,0.00,VWS V14.01,2013-02-13 16:45:00,
2013-02-13 11:50:00,80.0,68.9,29.91,SW,223,18.0,18.0,69,0.00,,SKC,0.00,VWS V14.01,2013-02-13 16:50:00,
2013-02-13 11:55:00,80.2,68.7,29.91,SSW,211,8.0,18.0,68,0.00,,SKC,0.00,VWS V14.01,2013-02-13 16:55:00,
2013-02-13 12:00:00,80.2,67.8,29.91,SSW,199,15.0,23.0,66,0.00,,SKC,0.00,VWS V14.01,2013-02-13 17:00:00,
2013-02-13 12:05:00,80.3,67.9,29.91,SSW,211,15.0,25.0,66,0.00,,SKC,0.00,VWS V14.01,2013-02-13 17:05:00,
2013-02-13 12:10:00,80.5,68.1,29.90,SW,233,9.0,21.0,66,0.00,,SKC,0.00,VWS V14.01,2013-02-13 17:10:00,
2013-02-13 12:15:00,80.6,67.8,29.90,SSW,210,14.0,23.0,65,0.00,,SKC,0.00,VWS V14.01,2013-02-13 17:15:00,
2013-02-13 12:20:00,81.1,67.3,29.90,SSW,206,14.0,22.0,63,0.00,,SKC,0.00,VWS V14.01,2013-02-13 17:20:00,
2013-02-13 12:25:00,81.3,67.5,29.89,SSW,195,8.0,23.0,63,0.00,,SKC,0.00,VWS V14.01,2013-02-13 17:25:00,
2013-02-13 12:30:00,81.4,67.6,29.89,SW,220,20.0,26.0,63,0.00,,SKC,0.00,VWS V14.01,2013-02-13 17:30:00,
2013-02-13 12:35:00,81.3,67.5,29.89,SW,215,14.0,17.0,63,0.00,,SKC,0.00,VWS V14.01,2013-02-13 17:35:00,
2013-02-13 12:40:00,81.6,67.3,29.89,SW,226,15.0,22.0,62,0.00,,SKC,0.00,VWS V14.01,2013-02-13 17:40:00,
2013-02-13 12:45:00,82.1,67.8,29.89,SSW,198,8.0,21.0,62,0.00,,SKC,0.00,VWS V14.01,2013-02-13 17:45:00,
2013-02-13 12:50:00,82.3,68.0,29.88,SW,220,18.0,21.0,62,0.00,,SKC,0.00,VWS V14.01,2013-02-13 17:50:00,
2013-02-13 12:55:00,82.6,67.8,29.88,WSW,245,17.0,22.0,61,0.00,,SKC,0.00,VWS V14.01,2013-02-13 17:55:00,
2013-02-13 13:00:00,82.7,67.9,29.88,SSW,212,11.0,19.0,61,0.00,,SKC,0.00,VWS V14.01,2013-02-13 18:00:00,
2013-02-13 13:05:00,82.6,67.3,29.88,WSW,254,11.0,26.0,60,0.00,,SKC,0.00,VWS V14.01,2013-02-13 18:05:00,
2013-02-13 13:10:00,82.3,67.5,29.87,SW,222,17.0,25.0,61,0.00,,SKC,0.00,VWS V14.01,2013-02-13 18:10:00,
2013-02-13 13:14:00,82.6,66.8,29.87,WSW,237,11.0,25.0,59,0.00,,SKC,0.00,VWS V14.01,2013-02-13 18:14:00,
2013-02-13 13:19:00,82.6,66.3,29.86,SSW,198,12.0,23.0,58,0.00,,SKC,0.00,VWS V14.01,2013-02-13 18:19:00,
2013-02-13 13:24:00,82.6,66.8,29.86,SSW,202,17.0,22.0,59,0.00,,SKC,0.00,VWS V14.01,2013-02-13 18:24:00,
2013-02-13 13:29:00,82.4,67.1,29.86,WSW,240,16.0,25.0,60,0.00,,SKC,0.00,VWS V14.01,2013-02-13 18:29:00,
2013-02-13 13:34:00,82.8,67.0,29.86,SSW,211,16.0,19.0,59,0.00,,SKC,0.00,VWS V14.01,2013-02-13 18:34:00,
2013-02-13 13:39:00,82.7,67.4,29.85,WSW,250,19.0,20.0,60,0.00,,SKC,0.00,VWS V14.01,2013-02-13 18:39:00,
2013-02-13 13:44:00,82.7,66.9,29.85,WSW,245,17.0,23.0,59,0.00,,SKC,0.00,VWS V14.01,2013-02-13 18:44:00,
2013-02-13 13:49:00,83.8,67.5,29.85,SW,224,17.0,24.0,58,0.00,,SKC,0.00,VWS V14.01,2013-02-13 18:49:00,
2013-02-13 13:54:00,83.3,67.0,29.85,SW,220,15.0,22.0,58,0.00,,SKC,0.00,VWS V14.01,2013-02-13 18:54:00,
2013-02-13 13:59:00,82.9,67.1,29.85,SSW,204,8.0,24.0,59,0.00,,SKC,0.00,VWS V14.01,2013-02-13 18:59:00,
2013-02-13 14:05:00,82.7,66.9,29.85,SW,222,14.0,25.0,59,0.00,,SKC,0.00,VWS V14.01,2013-02-13 19:05:00,
2013-02-13 14:10:00,82.3,67.0,29.85,SW,234,10.0,24.0,60,0.00,,SKC,0.00,VWS V14.01,2013-02-13 19:10:00,
2013-02-13 14:15:00,82.3,67.0,29.84,SW,230,15.0,20.0,60,0.00,,SKC,0.00,VWS V14.01,2013-02-13 19:15:00,
2013-02-13 14:20:00,83.0,67.7,29.84,SSW,205,17.0,21.0,60,0.00,,SKC,0.00,VWS V14.01,2013-02-13 19:20:00,
2013-02-13 14:24:00,82.8,67.5,29.84,SSW,200,7.0,23.0,60,0.00,,SKC,0.00,VWS V14.01,2013-02-13 19:24:00,
2013-02-13 14:30:00,82.1,67.3,29.84,SW,235,8.0,25.0,61,0.00,,SKC,0.00,VWS V14.01,2013-02-13 19:30:00,
2013-02-13 14:34:00,82.3,68.0,29.84,SW,221,14.0,19.0,62,0.00,,SKC,0.00,VWS V14.01,2013-02-13 19:34:00,
2013-02-13 14:40:00,82.4,67.6,29.84,SW,231,17.0,19.0,61,0.00,,SKC,0.00,VWS V14.01,2013-02-13 19:40:00,
2013-02-13 14:45:00,82.0,67.7,29.84,SSW,209,11.0,24.0,62,0.00,,SKC,0.00,VWS V14.01,2013-02-13 19:45:00,
2013-02-13 14:50:00,82.1,67.8,29.84,West,273,10.0,24.0,62,0.00,,SKC,0.00,VWS V14.01,2013-02-13 19:50:00,
2013-02-13 14:55:00,82.3,68.0,29.84,WSW,240,15.0,20.0,62,0.00,,SKC,0.00,VWS V14.01,2013-02-13 19:55:00,
2013-02-13 15:00:00,82.3,68.0,29.84,SW,225,21.0,21.0,62,0.00,,SKC,0.00,VWS V14.01,2013-02-13 20:00:00,
2013-02-13 15:05:00,82.4,67.6,29.83,SW,217,10.0,22.0,61,0.00,,SKC,0.00,VWS V14.01,2013-02-13 20:05:00,
2013-02-13 15:10:00,82.4,67.6,29.84,WSW,247,10.0,27.0,61,0.00,,SKC,0.00,VWS V14.01,2013-02-13 20:10:00,
2013-02-13 15:15:00,82.4,67.6,29.83,WSW,242,17.0,24.0,61,0.00,,SKC,0.00,VWS V14.01,2013-02-13 20:15:00,
2013-02-13 15:20:00,82.7,67.9,29.83,SW,233,18.0,26.0,61,0.00,,SKC,0.00,VWS V14.01,2013-02-13 20:20:00,
2013-02-13 15:25:00,82.0,67.7,29.83,WSW,241,12.0,27.0,62,0.00,,SKC,0.00,VWS V14.01,2013-02-13 20:25:00,
2013-02-13 15:30:00,82.1,67.8,29.83,WSW,247,13.0,25.0,62,0.00,,SKC,0.00,VWS V14.01,2013-02-13 20:30:00,
2013-02-13 15:35:00,82.5,67.2,29.83,WSW,257,14.0,21.0,60,0.00,,SKC,0.00,VWS V14.01,2013-02-13 20:35:00,
2013-02-13 15:40:00,82.2,67.4,29.83,SW,215,9.0,22.0,61,0.00,,SKC,0.00,VWS V14.01,2013-02-13 20:40:00,
2013-02-13 15:45:00,82.1,67.8,29.83,SW,225,11.0,20.0,62,0.00,,SKC,0.00,VWS V14.01,2013-02-13 20:45:00,
2013-02-13 15:50:00,81.6,67.8,29.83,SW,230,14.0,24.0,63,0.00,,SKC,0.00,VWS V14.01,2013-02-13 20:50:00,
2013-02-13 15:55:00,81.6,68.2,29.83,WSW,249,16.0,25.0,64,0.00,,SKC,0.00,VWS V14.01,2013-02-13 20:55:00,
2013-02-13 16:00:00,81.6,68.2,29.84,SW,233,13.0,19.0,64,0.00,,SKC,0.00,VWS V14.01,2013-02-13 21:00:00,
2013-02-13 16:05:00,81.5,68.2,29.83,WSW,250,9.0,23.0,64,0.00,,SKC,0.00,VWS V14.01,2013-02-13 21:05:00,
2013-02-13 16:10:00,81.4,68.5,29.84,WSW,254,10.0,20.0,65,0.00,,SKC,0.00,VWS V14.01,2013-02-13 21:10:00,
2013-02-13 16:15:00,81.4,68.5,29.83,SW,221,16.0,23.0,65,0.00,,SKC,0.00,VWS V14.01,2013-02-13 21:15:00,
2013-02-13 16:20:00,81.5,68.6,29.83,SW,229,8.0,20.0,65,0.00,,SKC,0.00,VWS V14.01,2013-02-13 21:20:00,
2013-02-13 16:25:00,81.9,68.5,29.83,SW,232,21.0,25.0,64,0.00,,SKC,0.00,VWS V14.01,2013-02-13 21:25:00,
2013-02-13 16:30:00,81.4,68.5,29.84,SW,232,12.0,21.0,65,0.00,,SKC,0.00,VWS V14.01,2013-02-13 21:30:00,
2013-02-13 16:35:00,81.2,68.8,29.84,WSW,240,13.0,24.0,66,0.00,,SKC,0.00,VWS V14.01,2013-02-13 21:35:00,
2013-02-13 16:40:00,80.9,68.5,29.84,WSW,237,16.0,22.0,66,0.00,,SKC,0.00,VWS V14.01,2013-02-13 21:40:00,
2013-02-13 16:45:00,80.6,68.2,29.84,West,259,8.0,27.0,66,0.00,,SKC,0.00,VWS V14.01,2013-02-13 21:45:00,
2013-02-13 16:50:00,80.3,68.3,29.85,WSW,247,18.0,24.0,67,0.00,,SKC,0.00,VWS V14.01,2013-02-13 21:50:00,
2013-02-13 16:55:00,80.1,68.6,29.84,SW,234,9.0,23.0,68,0.00,,SKC,0.00,VWS V14.01,2013-02-13 21:55:00,
2013-02-13 17:00:00,80.4,68.4,29.84,SW,227,12.0,25.0,67,0.00,,SKC,0.00,VWS V14.01,2013-02-13 22:00:00,
2013-02-13 17:05:00,80.5,68.5,29.84,SW,221,12.0,24.0,67,0.00,,SKC,0.00,VWS V14.01,2013-02-13 22:05:00,
2013-02-13 17:10:00,80.1,68.6,29.84,WSW,249,15.0,21.0,68,0.00,,SKC,0.00,VWS V14.01,2013-02-13 22:10:00,
2013-02-13 17:15:00,79.7,68.6,29.84,SW,221,14.0,18.0,69,0.00,,SKC,0.00,VWS V14.01,2013-02-13 22:15:00,
2013-02-13 17:20:00,79.7,68.6,29.84,SW,214,10.0,17.0,69,0.00,,SKC,0.00,VWS V14.01,2013-02-13 22:20:00,
2013-02-13 17:25:00,79.6,68.5,29.84,WSW,252,11.0,18.0,69,0.00,,SKC,0.00,VWS V14.01,2013-02-13 22:25:00,
2013-02-13 17:30:00,79.5,68.9,29.84,SW,218,12.0,19.0,70,0.00,,SKC,0.00,VWS V14.01,2013-02-13 22:30:00,
2013-02-13 17:35:00,79.4,68.8,29.84,SW,221,13.0,19.0,70,0.00,,SKC,0.00,VWS V14.01,2013-02-13 22:35:00,
2013-02-13 17:40:00,79.0,68.8,29.84,WSW,238,9.0,20.0,71,0.00,,SKC,0.00,VWS V14.01,2013-02-13 22:40:00,
2013-02-13 17:45:00,78.9,68.7,29.84,SW,226,11.0,22.0,71,0.00,,SKC,0.00,VWS V14.01,2013-02-13 22:45:00,
2013-02-13 17:50:00,78.8,69.0,29.84,WSW,245,9.0,23.0,72,0.00,,SKC,0.00,VWS V14.01,2013-02-13 22:50:00,
2013-02-13 17:55:00,78.7,68.9,29.85,WSW,245,8.0,20.0,72,0.00,,SKC,0.00,VWS V14.01,2013-02-13 22:55:00,
2013-02-13 18:00:00,78.5,69.1,29.85,WSW,240,14.0,16.0,73,0.00,,SKC,0.00,VWS V14.01,2013-02-13 23:00:00,
2013-02-13 18:05:00,78.4,69.0,29.85,WSW,247,11.0,16.0,73,0.00,,SKC,0.00,VWS V14.01,2013-02-13 23:05:00,
2013-02-13 18:10:00,78.3,69.3,29.85,WSW,242,9.0,20.0,74,0.00,,SKC,0.00,VWS V14.01,2013-02-13 23:10:00,
2013-02-13 18:15:00,78.2,69.2,29.85,WSW,238,17.0,17.0,74,0.00,,SKC,0.00,VWS V14.01,2013-02-13 23:15:00,
2013-02-13 18:20:00,78.1,69.5,29.85,SW,236,9.0,9.0,75,0.00,,SKC,0.00,VWS V14.01,2013-02-13 23:20:00,
2013-02-13 18:25:00,78.0,69.4,29.85,WSW,240,9.0,13.0,75,0.00,,SKC,0.00,VWS V14.01,2013-02-13 23:25:00,
2013-02-13 18:30:00,77.9,69.3,29.85,SW,227,18.0,20.0,75,0.00,,SKC,0.00,VWS V14.01,2013-02-13 23:30:00,
2013-02-13 18:35:00,77.8,69.6,29.85,SW,222,7.0,19.0,76,0.00,,SKC,0.00,VWS V14.01,2013-02-13 23:35:00,
2013-02-13 18:40:00,77.7,69.5,29.86,WSW,241,12.0,18.0,76,0.00,,SKC,0.00,VWS V14.01,2013-02-13 23:40:00,
2013-02-13 18:45:00,77.6,69.8,29.86,WSW,242,14.0,19.0,77,0.00,,SKC,0.00,VWS V14.01,2013-02-13 23:45:00,
2013-02-13 18:50:00,77.5,69.7,29.86,SW,216,13.0,20.0,77,0.00,,SKC,0.00,VWS V14.01,2013-02-13 23:50:00,
2013-02-13 18:55:00,77.4,69.6,29.86,WSW,257,10.0,22.0,77,0.00,,SKC,0.00,VWS V14.01,2013-02-13 23:55:00,
2013-02-13 19:00:00,77.4,69.6,29.86,WSW,248,7.0,19.0,77,0.00,,SKC,0.00,VWS V14.01,2013-02-14 00:00:00,
2013-02-13 19:05:00,77.3,69.9,29.86,WNW,288,4.0,13.0,78,0.00,,SKC,0.00,VWS V14.01,2013-02-14 00:05:00,
2013-02-13 19:10:00,75.3,67.6,29.87,WNW,288,1.0,14.0,77,0.00,,SKC,0.00,VWS V14.01,2013-02-14 00:10:00,
2013-02-13 19:15:00,73.7,67.2,29.87,WNW,287,8.0,8.0,80,0.00,,SKC,0.00,VWS V14.01,2013-02-14 00:15:00,
2013-02-13 19:20:00,72.5,67.1,29.88,NW,325,6.0,14.0,83,0.00,,SKC,0.00,VWS V14.01,2013-02-14 00:20:00,
2013-02-13 19:25:00,71.7,66.9,29.88,WNW,292,3.0,16.0,85,0.00,,SKC,0.00,VWS V14.01,2013-02-14 00:25:00,
2013-02-13 19:30:00,71.2,66.8,29.88,North,355,3.0,10.0,86,0.00,,SKC,0.00,VWS V14.01,2013-02-14 00:30:00,
2013-02-13 19:35:00,70.7,66.7,29.88,WNW,294,5.0,9.0,87,0.00,,SKC,0.00,VWS V14.01,2013-02-14 00:35:00,
2013-02-13 19:40:00,70.4,67.0,29.88,NW,319,4.0,12.0,89,0.00,,SKC,0.00,VWS V14.01,2013-02-14 00:40:00,
2013-02-13 19:45:00,70.1,67.0,29.89,West,277,12.0,13.0,90,0.00,,SKC,0.00,VWS V14.01,2013-02-14 00:45:00,
2013-02-13 19:50:00,69.7,67.0,29.89,NW,307,4.0,12.0,91,0.08,,SKC,0.08,VWS V14.01,2013-02-14 00:50:00,
2013-02-13 19:55:00,69.3,66.6,29.89,NNW,329,4.0,11.0,91,0.08,,SKC,0.08,VWS V14.01,2013-02-14 00:55:00,
2013-02-13 20:00:00,69.1,66.7,29.89,North,5,5.0,12.0,92,0.08,,SKC,0.08,VWS V14.01,2013-02-14 01:00:00,
2013-02-13 20:05:00,68.8,66.7,29.89,North,355,6.0,14.0,93,0.12,,SKC,0.12,VWS V14.01,2013-02-14 01:05:00,
2013-02-13 20:10:00,68.7,66.9,29.91,NW,306,14.0,16.0,94,0.17,,SKC,0.17,VWS V14.01,2013-02-14 01:10:00,
2013-02-13 20:15:00,66.0,62.7,29.92,NNW,335,3.0,22.0,89,0.19,,SKC,0.19,VWS V14.01,2013-02-14 01:15:00,
2013-02-13 20:20:00,66.0,63.0,29.92,West,275,5.0,26.0,90,0.20,,SKC,0.20,VWS V14.01,2013-02-14 01:20:00,
2013-02-13 20:25:00,66.0,62.3,29.93,WNW,289,10.0,20.0,88,0.20,,SKC,0.20,VWS V14.01,2013-02-14 01:25:00,
2013-02-13 20:30:00,66.3,62.0,29.94,WNW,298,17.0,17.0,86,0.21,,SKC,0.21,VWS V14.01,2013-02-14 01:30:00,
2013-02-13 20:35:00,66.3,61.3,29.94,NW,309,11.0,21.0,84,0.21,,SKC,0.21,VWS V14.01,2013-02-14 01:35:00,
2013-02-13 20:40:00,65.6,60.0,29.94,WNW,288,4.0,20.0,82,0.22,,SKC,0.22,VWS V14.01,2013-02-14 01:40:00,
2013-02-13 20:45:00,65.0,59.4,29.94,NW,309,2.0,17.0,82,0.22,,SKC,0.22,VWS V14.01,2013-02-14 01:45:00,
2013-02-13 20:50:00,64.7,59.4,29.94,West,267,3.0,12.0,83,0.22,,SKC,0.22,VWS V14.01,2013-02-14 01:50:00,
2013-02-13 20:55:00,64.4,59.1,29.95,North,5,3.0,14.0,83,0.14,,SKC,0.22,VWS V14.01,2013-02-14 01:55:00,
2013-02-13 21:00:00,64.1,58.8,29.93,NW,324,7.0,8.0,83,0.14,,SKC,0.22,VWS V14.01,2013-02-14 02:00:00,
2013-02-13 21:05:00,63.7,58.5,29.94,West,278,8.0,9.0,83,0.14,,SKC,0.22,VWS V14.01,2013-02-14 02:05:00,
2013-02-13 21:10:00,63.5,57.9,29.94,NW,315,2.0,12.0,82,0.10,,SKC,0.22,VWS V14.01,2013-02-14 02:10:00,
2013-02-13 21:15:00,63.3,57.7,29.95,NNW,339,5.0,8.0,82,0.05,,SKC,0.22,VWS V14.01,2013-02-14 02:15:00,
2013-02-13 21:20:00,63.1,57.5,29.95,NNW,334,5.0,7.0,82,0.03,,SKC,0.22,VWS V14.01,2013-02-14 02:20:00,
2013-02-13 21:25:00,62.9,57.7,29.95,NW,308,2.0,8.0,83,0.02,,SKC,0.22,VWS V14.01,2013-02-14 02:25:00,
2013-02-13 21:30:00,62.7,57.5,29.95,NW,325,3.0,6.0,83,0.02,,SKC,0.22,VWS V14.01,2013-02-14 02:30:00,
2013-02-13 21:35:00,62.6,57.4,29.95,NNW,327,5.0,5.0,83,0.01,,SKC,0.22,VWS V14.01,2013-02-14 02:35:00,
2013-02-13 21:40:00,62.6,57.0,29.95,North,355,3.0,5.0,82,0.01,,SKC,0.22,VWS V14.01,2013-02-14 02:40:00,
2013-02-13 21:45:00,62.5,56.9,29.95,NNW,346,3.0,5.0,82,0.01,,SKC,0.23,VWS V14.01,2013-02-14 02:45:00,
2013-02-13 21:50:00,62.5,56.9,29.95,NNW,340,2.0,6.0,82,0.01,,SKC,0.23,VWS V14.01,2013-02-14 02:50:00,
2013-02-13 21:55:00,62.6,57.0,29.95,NNW,340,3.0,7.0,82,0.01,,SKC,0.23,VWS V14.01,2013-02-14 02:55:00,
2013-02-13 22:00:00,62.6,57.0,29.95,NNW,346,2.0,4.0,82,0.01,,SKC,0.23,VWS V14.01,2013-02-14 03:00:00,
2013-02-13 22:05:00,62.6,57.0,29.95,NNW,331,0.0,4.0,82,0.01,,SKC,0.23,VWS V14.01,2013-02-14 03:05:00,
2013-02-13 22:10:00,62.7,56.8,29.96,NNW,329,1.0,4.0,81,0.01,,SKC,0.23,VWS V14.01,2013-02-14 03:10:00,
2013-02-13 22:15:00,62.7,56.8,29.96,North,355,1.0,6.0,81,0.01,,SKC,0.23,VWS V14.01,2013-02-14 03:15:00,
2013-02-13 22:20:00,62.7,56.8,29.97,NNW,335,3.0,5.0,81,0.01,,SKC,0.23,VWS V14.01,2013-02-14 03:20:00,
2013-02-13 22:25:00,62.7,56.8,29.97,NNW,327,3.0,6.0,81,0.01,,SKC,0.23,VWS V14.01,2013-02-14 03:25:00,
2013-02-13 22:30:00,62.8,56.9,29.96,North,350,3.0,6.0,81,0.01,,SKC,0.23,VWS V14.01,2013-02-14 03:30:00,
2013-02-13 22:35:00,62.8,57.2,29.96,North,351,1.0,5.0,82,0.01,,SKC,0.23,VWS V14.01,2013-02-14 03:35:00,
2013-02-13 22:40:00,62.7,57.1,29.96,North,351,3.0,4.0,82,0.01,,SKC,0.23,VWS V14.01,2013-02-14 03:40:00,
2013-02-13 22:45:00,62.7,57.1,29.96,North,351,1.0,3.0,82,0.02,,SKC,0.24,VWS V14.01,2013-02-14 03:45:00,
2013-02-13 22:50:00,62.7,57.1,29.97,North,349,3.0,4.0,82,0.01,,SKC,0.24,VWS V14.01,2013-02-14 03:50:00,
2013-02-13 22:55:00,62.7,57.1,29.97,NNW,338,1.0,4.0,82,0.01,,SKC,0.24,VWS V14.01,2013-02-14 03:55:00,
2013-02-13 23:00:00,62.6,57.0,29.97,NW,317,2.0,5.0,82,0.01,,SKC,0.24,VWS V14.01,2013-02-14 04:00:00,
2013-02-13 23:05:00,62.6,57.0,29.97,NNW,348,0.0,4.0,82,0.01,,SKC,0.24,VWS V14.01,2013-02-14 04:05:00,
2013-02-13 23:10:00,62.6,57.0,29.97,NNW,348,0.0,0.0,82,0.01,,SKC,0.24,VWS V14.01,2013-02-14 04:10:00,
2013-02-13 23:15:00,62.6,57.0,29.97,NNW,348,0.0,2.0,82,0.01,,SKC,0.24,VWS V14.01,2013-02-14 04:15:00,
2013-02-13 23:20:00,62.6,57.0,29.97,NNW,348,0.0,1.0,82,0.01,,SKC,0.24,VWS V14.01,2013-02-14 04:20:00,
2013-02-13 23:25:00,62.6,57.0,29.97,NNW,348,0.0,2.0,82,0.01,,SKC,0.24,VWS V14.01,2013-02-14 04:25:00,
2013-02-13 23:30:00,62.6,57.0,29.97,NNW,348,1.0,3.0,82,0.01,,SKC,0.24,VWS V14.01,2013-02-14 04:30:00,
2013-02-13 23:35:00,62.7,57.1,29.97,NNW,348,0.0,2.0,82,0.01,,SKC,0.24,VWS V14.01,2013-02-14 04:35:00,
2013-02-13 23:40:00,62.8,57.2,29.97,WNW,292,5.0,5.0,82,0.01,,SKC,0.24,VWS V14.01,2013-02-14 04:40:00,
2013-02-13 23:45:00,62.9,57.0,29.97,WNW,303,4.0,5.0,81,0.01,,SKC,0.24,VWS V14.01,2013-02-14 04:45:00,
2013-02-13 23:50:00,63.0,56.7,29.97,NW,311,1.0,6.0,80,0.00,,SKC,0.24,VWS V14.01,2013-02-14 04:50:00,
2013-02-13 23:55:00,63.1,57.2,29.97,West,275,1.0,5.0,81,0.00,,SKC,0.24,VWS V14.01,2013-02-14 04:55:00,